Location: STAR School
(35.3054°N, 111.2976°W)
Time: 10:40:27
(UTC-07:00)

deb Explorer IX - Pass Details

Date: 01 June 2019
Orbit: 537 x 1115 km, 38.8° (Epoch: 16 June)

Event Time Altitude Azimuth Distance (km) Brightness Sun altitude
Exits shadow 04:13:20 - 276° (W) 1,959 ? -10.9°
Reaches altitude 10° 04:13:49 10° 273° (W) 1,780 ? -10.8°
Maximum altitude 04:17:23 31° 210° (SSW) 955 ? -10.2°
Drops below altitude 10° 04:21:05 10° 147° (SSE) 1,840 ? -9.6°
Sets 04:23:36 0° 137° (SE) 2,792 ? -9.2°
